[ hide orbit diagram ]
For accurate long-term ephemerides, please instead use our Horizons system.This orbit viewer was implemented using two-body methods, and hence should not be used for determining accurate long-term trajectories (over several years or decades) or planetary encounter circumstances.
Orbital Elements at Epoch 2459000.5 (2020-May-31.0) TDB
Reference: JPL 101 (heliocentric ecliptic J2000)
Element | Value | Uncertainty (1-sigma) | Units |
e | .1067231603932329 | 3.1118e-08 | |
a | 3.102132401504816 | 1.0587e-08 | au |
q | 2.771063027657973 | 9.6816e-08 | au |
i | 6.131078743574784 | 3.0657e-06 | deg |
node | 134.1158010429594 | 3.4269e-05 | deg |
peri | 333.1959195370079 | 3.7837e-05 | deg |
M | 106.6369062841252 | 1.6359e-05 | deg |
tp | 2458409.355085289460 (2018-Oct-17.85508529) | 9.0545e-05 | TDB |
period | 1995.670886482527 5.46 | 1.0217e-05 2.797e-08 | d yr |
n | .1803904654010955 | 9.2349e-10 | deg/d |
Q | 3.433201775351659 | 1.1717e-08 | au |
|
| | Orbit Determination Parameters
Additional Information
|
[ show covariance matrix ]
Physical Parameter Table
Parameter |
Symbol |
Value |
Units |
Sigma |
Reference |
Notes |
absolute magnitude |
H |
8.3 |
|
n/a |
MPO473762 |
IRAS observations used: 17 |
diameter |
diameter |
125.236 |
km |
1.191 |
urn:nasa:pds:neowise_diameters_albedos::2.0[mainbelt] (http://adsabs.harvard.edu/abs/2014ApJ...791..121M) |
|
rotation period |
rot_per |
24.476 |
h |
n/a |
LCDB (Rev. 2020-October); Warner et al., 2009 |
Published Reference List: [Harris, A.W.; Young, J.W. (1989) Icarus 81, 314-364.] [Behrend, R. (2005) Observatoire de Geneve web site, http://obswww.unige.ch/~behrend/page_cou.html] [Pilcher, F. (2013) Minor Planet Bull. 40, 85-87.] [Marciniak, A.; Pilcher, F.; Oszkiewicz, D.; Santana-Ros, T.; et al. (2015) Planet. Space Sci. 118, 256-266.] [Marciniak, A.; Bartczak, P.; Muller, T.; Sanabria, J.J.; et al. (2018) Astron. Astrophys. 610, A7.] |
geometric albedo |
albedo |
0.064 |
|
0.014 |
urn:nasa:pds:neowise_diameters_albedos::2.0[mainbelt] (http://adsabs.harvard.edu/abs/2014ApJ...791..121M) |
|
B-V |
BV |
0.700 |
|
0.026 |
EAR-A-5-DDR-UBV-MEAN-VALUES-V1.2 |
#obs=3; phase (min.=5.71, mean=8.02, max.=9.80) deg. |
U-B |
UB |
0.380 |
|
0.027 |
EAR-A-5-DDR-UBV-MEAN-VALUES-V1.2 |
#obs=3; phase (min.=5.71, mean=8.02, max.=9.80) deg. |
Tholen spectral type |
spec_T |
C |
|
n/a |
EAR-A-5-DDR-TAXONOMY-V4.0 |
used 7 color indices; used ground-based radiometric albedo |
SMASSII spectral type |
spec_B |
Ch |
|
n/a |
EAR-A-5-DDR-TAXONOMY-V4.0 |
based on a high-resolution spectrum by Xu et al. (1995) or Bus and Binzel (2002) |
|
159 Aemilia (A876 BA) Discovered 1876-Jan-26 by Henry, Paul at Paris |
In their cooperative program it will probably never be known which of the Henry brothers discovered which planet. With strict impartiality, these discoveries were announced as having been made alternatively by Prosper and by Paul. |
Note: "planet" implies "minor planet" |
Reference: DISCOVERY.DB | Last Updated: 2003-08-29 |
|
[ show close-approach data ]
|